Probability
0 0 0 0 0 0 0 0 0 0 0 0 0 0 0 0 0 0 0 0 0 0 0 0 0 0 0 0 0 0 0 0 0 0 0 0 0 0
0 0 0 0 0 0 0 0 0 0 0 0 0 0 0 0 0 0 0 0 0 0 0 0 0 0 0 0 0 0 0 0 0 0 0 0 0 0
0 0 0 0 0 0 0 0 0 0 0 0 0 0 0 0 0 0 0 0 0 0 0 0 0 0 0 0 0 0 0 0 0 0 0 0 0 0
0 0 0 0 0 0 0 0 0 0 0 0 0 0 0 0 0 0 0 0 0 0 0 0 0 0 0 0 0 0 0 0 0 0 0 0 0 0
0 0 0 0 0 0 0 0 0 0 0 0 0 0 0 0 0 0 0 0 0 0 0 0 0 0 0 0 0 0 0 0 0 0 0 0 0 0
0 0 0 0 0 0 0 0 0 0 0 0 0 0 0 0 0 0 0 0 0 0 0 0 0 0 0 0 0 0 0 0 0 0 0 0 0 0
0 0 0 0 0 0 0 0 0 0 0 0 0 0 0 0 0 0 0 0 0 0 0 0 0 0 0 0 0 0 0 0 0 0 0 0 0 0
0 0 0 0 0 0 0 0 0 0 0 0 0 0 0 0 0 0 0 0 0 0 0 0 0 0 0 0 0 0 0 0 0 0 0 0 0 0
0 0 0 0 0 0 0 0 0 0 0 0 0 0 0 0 0 0 0 0 0 0 0 0 0 0 0 0 0 0 0 0 0 0 0 0 0 0
0 0 0 0 0 0 0 0 0 0 0 0 0 0 0 0 0 0 0 0 0 0 0 0 0 0 0 0 0 0 0 0 0 0 0 0 0 0
0 0 0 0 0 0 0 0 0 0 0 0 0 0 0 0 0 0 0 0 0 0 0 0 0 0 0 0 0 0 0 0 0 0 0 0 0 0
0 0 0 0 0 0 0 0 0 0 0 0 0 0 0 0 0 0 0 0 0 0 0 0 0 0 0 0 0 0 0 0 0 0 0 0 0 0
0 0 0 0 0 0 0 0 0 0 0 0 0 0 0 0 0 0 0 0 0 0 0 0 0 0 0 0 0 0 0 0 0 0 0 0 0 0
0 0 0 0 0 0 0 0 0 0 0 0 0 0 0 0 0 0 0 0 0 0 0 0 0 0 0 0 0 0 0 0 0 0 0 0 0 0
0 0 0 0 0 0 0 0 0 0 0 0 0 0 0 0 0 0 0 0 0 0 0 0 0 0 0 0 0 0 0 0 0 0 0 0 0 0
0 0 0 0 0 0 0 0 0 0 0 0 0 0 0 0 0 0 0 0 0 0 0 0 0 0 0 0 0 0 0 0 0 0 0 0 0 0
0 0 0 0 0 0 0 0 0 0 0 0 0 0 0 0 0 0 0 0 0 0 0 0 0 0 0 0 0 0 0 0 0 0 0 0 0 0
0 0 0 0 0 0 0 0 0 0 0 0 0 0 0 0 0 0 0 0 0 0 0 0 0 0 0 0 0 0 0 0 0 0 0 0 0 0
0 0 0 0 0 0 0 0 0 0 0 0 0 0 0 0 0 0 0 0 0 0 0 0 0 0 0 0 0 0 0 0 0 0 0 0 0 0
0 0 0 0 0 0 0 0 0 0 0 0 0 0 0 0 0 0 0 0 0 0 0 0 0 0 0 0 0 0 0 0 0 0 0 0 0 0
0 0 0 0 0 0 0 0 0 0 0 0 0 0 0 0 0 0 0 0 0 0 0 0 0 0 0 0 0 0 0 0 0 0 0 0 0 0
0 0 0 0 0 0 0 0 0 0 0 0 0 0 0 0 0 0 0 0 0 0 0 0 0 0 0 0 0 0 0 0 0 0 0 0 0 0
0 0 0 0 0 0 0 0 0 0 0 0 0 0 0 0 0 0 0 0 0 0 0 0 0 0 0 0 0 0 0 0 0 0 0 0 0 0
Height
5760 5761 5762 5764 5764 5765 5766 5766 5767 5767 5768 5767 5767 5767 5766 5766 5765 5765 5764 5763 5761 5760 5758 5756 5754 5753 5751 5749 5747 5744 5742 5740 5737 5734 5732 5729 5726 5723
5750 5751 5752 5753 5754 5755 5756 5756 5757 5757 5758 5758 5757 5757 5757 5756 5756 5755 5754 5753 5751 5750 5748 5746 5744 5742 5741 5739 5737 5734 5732 5729 5726 5723 5721 5718 5715 5712
5739 5740 5742 5743 5744 5745 5745 5746 5747 5747 5748 5748 5748 5747 5746 5746 5745 5744 5744 5743 5741 5740 5738 5736 5734 5732 5730 5728 5726 5724 5721 5718 5715 5712 5710 5707 5704 5701
5728 5729 5731 5732 5733 5734 5735 5736 5736 5737 5738 5738 5738 5737 5736 5736 5735 5734 5733 5732 5731 5729 5727 5726 5724 5722 5720 5718 5715 5713 5710 5707 5704 5701 5698 5696 5692 5689
5717 5718 5720 5721 5722 5723 5724 5725 5726 5726 5727 5727 5727 5727 5726 5725 5725 5724 5722 5721 5720 5718 5716 5715 5713 5711 5709 5707 5704 5701 5698 5696 5693 5690 5686 5683 5680 5676
5706 5707 5709 5710 5711 5712 5713 5714 5714 5715 5716 5716 5716 5716 5715 5714 5713 5713 5712 5710 5709 5707 5705 5703 5701 5699 5697 5695 5692 5690 5687 5684 5681 5677 5674 5671 5667 5664
5694 5696 5697 5698 5700 5701 5702 5703 5703 5704 5704 5705 5704 5704 5704 5703 5702 5701 5700 5699 5697 5695 5693 5691 5689 5687 5685 5682 5680 5677 5674 5671 5668 5665 5661 5658 5654 5651
5682 5684 5686 5687 5688 5689 5690 5691 5692 5692 5693 5692 5692 5692 5691 5690 5689 5688 5687 5687 5686 5684 5681 5679 5677 5674 5672 5669 5667 5664 5661 5658 5655 5651 5648 5645 5641 5638
5670 5672 5674 5676 5676 5677 5678 5679 5680 5680 5680 5680 5680 5680 5679 5678 5677 5676 5675 5673 5672 5670 5668 5666 5664 5661 5659 5656 5654 5651 5648 5645 5642 5638 5635 5632 5628 5624
5658 5660 5662 5664 5665 5666 5666 5667 5667 5668 5668 5667 5667 5667 5666 5665 5664 5663 5662 5660 5659 5657 5654 5653 5650 5648 5645 5642 5640 5637 5634 5631 5628 5625 5621 5618 5614 5611
5646 5648 5650 5651 5653 5653 5654 5655 5655 5655 5655 5655 5654 5654 5653 5652 5651 5650 5648 5647 5645 5643 5641 5638 5636 5633 5631 5628 5625 5622 5620 5617 5614 5611 5607 5604 5600 5597
5634 5635 5637 5638 5639 5640 5641 5642 5642 5642 5642 5642 5642 5641 5641 5640 5638 5637 5636 5634 5632 5630 5628 5625 5622 5619 5617 5614 5611 5608 5605 5602 5599 5596 5593 5590 5586 5582
5621 5623 5625 5626 5627 5628 5628 5629 5630 5629 5629 5629 5629 5629 5628 5627 5626 5625 5623 5621 5619 5617 5614 5611 5609 5605 5603 5600 5597 5593 5590 5587 5584 5581 5578 5575 5572 5568
5608 5610 5612 5613 5614 5615 5616 5617 5617 5617 5617 5617 5617 5617 5616 5615 5614 5612 5610 5608 5605 5603 5601 5598 5595 5592 5589 5586 5583 5580 5576 5572 5569 5567 5564 5561 5557 5553
5595 5597 5598 5600 5601 5603 5604 5604 5604 5604 5605 5605 5605 5604 5603 5602 5601 5599 5597 5595 5592 5590 5587 5584 5581 5578 5575 5572 5569 5566 5562 5559 5555 5552 5549 5546 5543 5539
5581 5583 5585 5586 5588 5590 5590 5591 5591 5592 5592 5592 5591 5591 5590 5589 5588 5586 5584 5582 5580 5577 5574 5571 5568 5565 5561 5558 5555 5551 5548 5544 5541 5538 5535 5531 5528 5524
5567 5570 5572 5574 5576 5577 5578 5578 5578 5579 5579 5579 5578 5578 5577 5576 5574 5573 5571 5568 5566 5564 5561 5558 5554 5551 5547 5544 5540 5537 5533 5529 5526 5523 5520 5517 5514 5510
5554 5556 5559 5561 5562 5564 5564 5565 5565 5565 5565 5565 5565 5564 5563 5562 5561 5559 5556 5554 5552 5550 5547 5544 5541 5537 5534 5530 5526 5522 5519 5515 5512 5508 5505 5502 5500 5495
5541 5544 5546 5548 5549 5550 5551 5552 5552 5552 5552 5552 5551 5550 5549 5548 5547 5545 5543 5541 5538 5536 5533 5530 5526 5523 5520 5516 5512 5507 5504 5500 5497 5494 5490 5487 5484 5481
5530 5532 5534 5535 5536 5537 5538 5539 5539 5539 5539 5538 5538 5537 5536 5535 5533 5531 5529 5527 5525 5522 5519 5515 5512 5508 5505 5502 5498 5494 5488 5485 5483 5479 5476 5473 5469 5466
5518 5520 5521 5522 5523 5524 5525 5525 5526 5526 5526 5525 5525 5524 5522 5521 5520 5518 5516 5513 5511 5508 5505 5502 5498 5494 5490 5487 5484 5481 5476 5471 5468 5464 5461 5459 5456 5453
5505 5507 5509 5510 5511 5511 5512 5512 5513 5513 5513 5512 5512 5511 5509 5508 5506 5504 5502 5500 5497 5494 5491 5488 5484 5481 5477 5474 5471 5467 5464 5459 5455 5451 5447 5444 5441 5439
5493 5494 5496 5497 5498 5499 5499 5500 5500 5500 5500 5500 5499 5498 5496 5495 5493 5491 5489 5487 5484 5481 5478 5475 5471 5467 5464 5460 5457 5454 5451 5447 5444 5440 5436 5431 5428 5425
Wind_Speed
42 42 41 41 41 40 39 39 40 40 39 39 39 38 38 38 38 38 38 39 38 38 38 39 39 39 40 41 40 41 42 42 43 43 43 43 43 43
43 43 42 42 43 43 42 42 42 41 41 40 39 39 38 38 38 39 39 39 39 40 40 39 39 41 41 42 42 43 43 44 43 43 44 44 44 44
44 44 44 43 44 44 43 43 43 42 41 41 41 40 39 40 40 41 41 40 40 41 41 41 41 42 42 43 44 44 44 44 44 45 45 45 45 46
45 45 45 45 44 44 44 44 44 43 42 42 42 42 41 42 42 43 42 42 42 42 42 43 42 43 44 45 45 45 45 45 45 46 46 47 48 48
45 45 45 45 44 44 44 45 45 44 43 43 43 43 44 44 44 44 44 44 44 44 44 44 45 45 46 46 46 46 46 46 46 47 48 48 49 49
46 46 45 45 45 45 45 45 45 45 44 44 45 45 45 45 45 45 45 45 45 45 45 46 47 48 47 47 47 47 48 48 48 49 49 49 50 50
46 47 46 46 45 45 45 46 46 46 46 46 46 47 47 46 46 46 46 46 46 46 47 47 48 47 47 48 48 48 49 49 49 50 50 50 51 51
47 47 46 47 46 47 47 46 47 47 47 47 47 48 47 47 47 48 47 47 48 48 49 48 48 48 48 48 48 49 49 50 49 50 50 50 51 51
47 48 47 46 47 46 46 47 47 47 47 48 48 48 48 48 49 49 49 49 49 50 50 49 49 49 49 50 50 50 51 51 50 51 51 51 51 51
48 48 48 48 47 47 47 47 48 48 48 49 49 49 49 50 50 49 49 50 50 50 50 50 50 51 51 51 51 52 52 52 52 52 52 51 51 51
48 48 49 49 48 48 48 47 48 48 48 48 48 48 48 48 48 48 48 48 49 50 51 51 51 51 52 52 53 53 53 53 52 52 52 52 52 51
49 49 50 49 50 49 49 48 48 48 48 48 47 47 47 47 47 47 48 48 49 49 49 50 51 51 52 52 53 53 53 53 53 53 52 52 52 52
49 49 49 48 48 48 48 48 48 48 47 47 47 46 47 47 47 47 48 48 49 49 49 50 51 51 52 52 52 52 52 53 53 52 52 52 52 52
48 48 48 47 46 47 47 47 48 48 47 46 46 46 46 46 46 47 47 48 48 49 49 50 51 51 51 51 51 51 52 52 52 52 52 52 52 52
49 49 48 48 47 47 48 47 47 47 46 46 46 46 46 46 47 47 47 47 48 49 50 50 50 50 50 51 50 51 51 51 51 51 52 52 52 52
48 48 48 48 47 47 47 47 46 46 46 46 46 46 47 47 47 47 48 49 49 49 49 49 50 50 50 51 51 51 51 51 51 51 52 52 52 52
47 48 47 47 47 47 46 47 47 47 47 47 47 47 48 48 48 48 49 49 49 49 49 50 50 51 51 51 51 51 52 52 52 52 52 52 52 52
46 47 47 46 46 46 46 47 47 47 47 48 48 48 48 48 49 49 49 50 50 49 49 50 51 52 52 52 52 52 52 52 52 52 52 52 51 52
45 45 46 46 46 46 47 47 46 47 47 47 47 48 48 48 48 49 49 49 49 49 50 51 51 52 52 52 52 52 52 51 51 51 51 51 51 51
44 44 44 44 45 46 46 46 46 45 46 46 47 47 47 47 48 48 48 48 48 49 49 50 50 51 51 51 51 51 51 51 51 51 50 49 49 49
43 43 43 43 43 44 44 45 45 45 45 45 46 46 46 47 47 47 47 47 47 48 48 49 49 50 50 50 49 49 49 50 50 50 49 47 47 46
43 43 43 43 43 43 44 45 45 45 46 46 46 46 46 45 45 46 46 47 47 47 47 48 48 49 48 48 48 48 48 48 48 48 47 46 45 44
42 42 42 43 43 43 43 44 44 44 44 43 44 44 44 44 45 45 45 45 45 45 45 46 46 46 46 46 47 46 46 46 46 45 45 44 43 42
Wind_Direction
256 257 259 260 260 261 263 264 266 267 269 270 270 269 270 271 273 275 277 278 280 281 282 283 282 283 284 284 285 286 288 289 289 290 290 290 290 290
257 257 258 259 260 261 263 265 266 268 268 269 269 269 270 271 273 275 277 278 280 281 282 282 282 283 284 284 286 287 288 288 289 289 290 290 290 291
257 257 257 259 260 261 263 264 266 267 269 269 269 269 270 271 273 276 277 279 280 281 281 282 282 283 283 285 287 288 289 289 289 289 290 290 290 291
257 258 259 260 261 262 263 263 265 267 268 269 269 270 272 273 274 276 278 280 280 281 281 282 283 283 284 285 287 288 288 289 289 290 290 290 291 292
257 258 259 259 260 262 263 264 264 266 267 268 269 271 273 274 275 276 277 279 280 281 281 281 283 284 284 285 286 287 288 289 289 290 290 290 290 291
257 258 258 259 261 261 263 264 264 266 267 269 270 271 274 275 276 276 276 278 279 280 281 282 283 283 284 286 286 287 287 288 289 289 289 289 289 290
256 257 257 258 259 261 262 263 264 266 268 270 271 272 274 275 275 275 276 277 279 280 281 282 283 284 285 286 285 286 287 288 289 288 288 289 289 290
256 256 257 258 259 260 262 263 265 266 268 270 271 272 273 274 274 275 275 277 278 279 280 281 283 284 285 286 286 287 287 288 288 288 289 290 290 291
256 256 258 259 260 261 262 263 265 267 269 270 271 272 273 273 274 275 276 277 278 280 280 281 283 283 284 285 286 287 287 287 288 289 290 290 291 291
256 257 258 259 260 262 262 264 265 267 268 270 271 272 272 273 274 275 276 278 278 280 281 282 282 283 283 284 285 286 287 287 288 289 290 290 291 291
257 257 258 259 261 261 262 264 265 267 269 270 270 271 272 273 274 275 277 278 279 281 282 282 282 283 283 284 286 286 286 286 288 288 289 290 290 290
256 257 259 260 260 261 263 264 265 267 268 268 269 270 272 273 275 276 278 279 280 282 282 283 283 283 284 285 286 286 286 287 287 288 289 289 289 290
256 257 258 259 259 260 262 264 265 266 267 268 270 271 272 274 276 278 279 280 281 282 283 283 284 284 285 285 286 286 287 287 288 288 288 289 289 290
256 257 257 258 260 261 262 264 265 266 267 269 270 272 274 275 277 278 279 280 282 283 284 284 284 285 285 286 286 287 288 288 288 288 288 288 289 289
255 256 257 258 259 262 263 264 265 266 268 269 270 272 274 275 276 277 279 280 282 283 284 285 285 285 286 287 288 288 288 289 288 288 288 288 288 289
254 256 257 258 259 261 263 264 264 266 268 269 271 272 274 275 276 277 279 281 282 283 284 284 285 285 286 288 288 289 289 289 288 288 288 288 288 289
255 256 258 259 260 262 263 264 265 266 268 269 271 272 273 275 276 278 279 281 282 283 283 284 285 285 286 288 289 289 290 290 289 288 288 288 288 288
256 257 257 258 260 261 263 264 265 267 268 270 271 271 273 275 277 278 279 281 282 282 283 284 285 286 287 288 289 289 289 289 288 289 289 289 288 288
256 257 258 258 259 261 263 264 265 266 267 268 270 271 273 275 276 278 279 281 282 283 284 285 285 286 287 288 289 289 289 289 289 290 290 289 289 289
256 257 258 259 261 261 262 264 265 265 266 267 269 272 273 275 276 278 280 281 283 284 285 285 286 287 288 288 289 289 289 289 289 290 290 290 290 291
256 257 259 260 261 262 262 263 264 265 267 269 271 273 274 276 277 279 281 282 284 284 285 286 287 288 289 289 289 289 290 290 290 291 290 290 290 291
257 258 260 261 262 262 263 264 266 267 269 270 272 273 275 277 278 280 281 283 284 285 286 287 288 289 289 289 290 290 290 290 290 291 291 292 291 291
257 259 260 262 262 263 265 266 267 269 270 272 273 274 276 278 279 280 282 283 285 286 287 289 289 289 289 290 290 291 290 290 290 291 291 292 292 292